Time,TemperatureF,DewpointF,PressureIn,WindDirection,WindDirectionDegrees,WindSpeedMPH,WindSpeedGustMPH,Humidity,HourlyPrecipIn,Conditions,Clouds,dailyrainin,SoftwareType,DateUTC
2013-09-11 00:14:00,68.0,66.0,29.94,North,349,1.0,4.0,92,0.00,,,0.02,,2013-09-11 04:14:00,
2013-09-11 00:24:00,68.0,66.0,29.95,North,0,2.0,4.0,92,0.00,,,0.02,,2013-09-11 04:24:00,
2013-09-11 00:54:00,67.0,65.0,29.98,NW,307,0.0,8.0,93,0.00,,,0.02,,2013-09-11 04:54:00,
2013-09-11 01:23:00,65.0,63.0,29.98,West,272,0.0,5.0,93,0.00,,,0.02,,2013-09-11 05:23:00,
2013-09-11 01:53:00,65.0,64.0,29.96,West,272,1.0,3.0,95,0.00,,,0.01,,2013-09-11 05:53:00,
2013-09-11 02:22:00,65.0,64.0,29.98,SSW,196,3.0,6.0,95,0.00,,,0.01,,2013-09-11 06:22:00,
2013-09-11 02:42:00,65.0,64.0,29.97,SSW,196,3.0,4.0,95,0.00,,,0.01,,2013-09-11 06:42:00,
2013-09-11 02:52:00,64.0,63.0,29.97,SSW,196,3.0,4.0,95,0.00,,,0.01,,2013-09-11 06:52:00,
2013-09-11 03:23:00,64.0,63.0,29.97,South,174,3.0,6.0,96,0.00,,,0.01,,2013-09-11 07:23:00,
2013-09-11 03:53:00,64.0,63.0,29.96,South,173,5.0,7.0,96,0.00,,,0.01,,2013-09-11 07:53:00,
2013-09-11 04:22:00,64.0,63.0,29.96,South,180,2.0,6.0,96,0.01,,,0.02,,2013-09-11 08:22:00,
2013-09-11 04:52:00,64.0,63.0,29.96,South,180,3.0,6.0,96,0.01,,,0.02,,2013-09-11 08:52:00,
2013-09-11 05:21:00,64.0,63.0,29.96,South,179,2.0,6.0,96,0.01,,,0.02,,2013-09-11 09:21:00,
2013-09-11 05:53:00,64.0,63.0,29.95,South,180,1.0,5.0,96,0.00,,,0.02,,2013-09-11 09:53:00,
2013-09-11 06:13:00,64.0,63.0,29.94,South,180,3.0,4.0,96,0.00,,,0.02,,2013-09-11 10:13:00,
2013-09-11 06:23:00,64.0,63.0,29.94,South,180,3.0,4.0,96,0.00,,,0.02,,2013-09-11 10:23:00,
2013-09-11 06:53:00,64.0,63.0,29.96,South,180,3.0,4.0,96,0.00,,,0.02,,2013-09-11 10:53:00,
2013-09-11 07:22:00,64.0,63.0,29.96,South,181,2.0,4.0,96,0.00,,,0.02,,2013-09-11 11:22:00,
2013-09-11 07:52:00,65.0,64.0,29.97,South,181,2.0,6.0,97,0.00,,,0.02,,2013-09-11 11:52:00,
2013-09-11 08:21:00,65.0,64.0,29.98,South,178,2.0,6.0,97,0.00,,,0.02,,2013-09-11 12:21:00,
2013-09-11 08:52:00,65.0,64.0,29.97,South,170,2.0,6.0,97,0.00,,,0.02,,2013-09-11 12:52:00,
2013-09-11 09:22:00,66.0,65.0,29.98,South,170,3.0,6.0,97,0.00,,,0.02,,2013-09-11 13:22:00,
2013-09-11 09:52:00,68.0,67.0,29.98,East,100,3.0,7.0,96,0.00,,,0.02,,2013-09-11 13:52:00,
2013-09-11 10:22:00,69.0,66.0,29.99,ESE,113,2.0,8.0,91,0.00,,,0.02,,2013-09-11 14:22:00,
2013-09-11 10:52:00,70.0,66.0,29.98,ESE,122,3.0,7.0,87,0.00,,,0.02,,2013-09-11 14:52:00,
2013-09-11 11:22:00,70.0,66.0,29.98,SW,218,2.0,9.0,87,0.00,,,0.02,,2013-09-11 15:22:00,
2013-09-11 11:54:00,70.0,66.0,29.98,WSW,239,3.0,9.0,88,0.00,,,0.02,,2013-09-11 15:54:00,
2013-09-11 12:13:00,70.0,66.0,29.98,SSW,193,3.0,6.0,88,0.00,,,0.01,,2013-09-11 16:13:00,
2013-09-11 12:23:00,70.0,66.0,29.98,SW,232,2.0,6.0,88,0.00,,,0.01,,2013-09-11 16:23:00,
2013-09-11 12:53:00,71.0,68.0,29.98,WSW,250,2.0,6.0,89,0.01,,,0.02,,2013-09-11 16:53:00,
2013-09-11 13:23:00,72.0,67.0,29.97,SW,229,0.0,8.0,85,0.01,,,0.02,,2013-09-11 17:23:00,
2013-09-11 13:52:00,74.0,68.0,29.96,WSW,244,3.0,8.0,81,0.01,,,0.02,,2013-09-11 17:52:00,
2013-09-11 14:22:00,73.0,67.0,29.96,SSE,148,2.0,6.0,81,0.00,,,0.02,,2013-09-11 18:22:00,
2013-09-11 14:52:00,73.0,67.0,29.96,SE,138,3.0,10.0,81,0.00,,,0.02,,2013-09-11 18:52:00,
2013-09-11 15:12:00,74.0,67.0,29.96,SW,226,3.0,10.0,78,0.01,,,0.03,,2013-09-11 19:12:00,
2013-09-11 15:22:00,74.0,66.0,29.96,West,264,3.0,10.0,76,0.01,,,0.03,,2013-09-11 19:22:00,
2013-09-11 15:53:00,76.0,67.0,29.96,WSW,246,5.0,8.0,73,0.02,,,0.04,,2013-09-11 19:53:00,
2013-09-11 16:12:00,75.0,66.0,29.96,ESE,110,3.0,9.0,74,0.02,,,0.04,,2013-09-11 20:12:00,
2013-09-11 16:22:00,75.0,66.0,29.96,NW,311,1.0,10.0,74,0.02,,,0.04,,2013-09-11 20:22:00,
2013-09-11 16:52:00,76.0,67.0,29.96,WSW,248,0.0,13.0,75,0.02,,,0.05,,2013-09-11 20:52:00,
2013-09-11 17:22:00,76.0,68.0,29.96,WSW,256,4.0,8.0,76,0.01,,,0.05,,2013-09-11 21:22:00,
2013-09-11 17:54:00,75.0,67.0,29.96,WNW,292,4.0,10.0,75,0.02,,,0.06,,2013-09-11 21:54:00,
2013-09-11 18:13:00,75.0,67.0,29.96,NNW,327,3.0,9.0,75,0.01,,,0.06,,2013-09-11 22:13:00,
2013-09-11 18:24:00,75.0,66.0,29.95,WNW,303,2.0,11.0,74,0.01,,,0.06,,2013-09-11 22:24:00,
2013-09-11 18:33:00,75.0,66.0,29.95,WNW,303,2.0,11.0,74,0.01,,,0.06,,2013-09-11 22:33:00,
2013-09-11 18:54:00,75.0,66.0,29.95,SSW,204,3.0,10.0,74,0.02,,,0.07,,2013-09-11 22:54:00,
2013-09-11 19:22:00,74.0,66.0,29.94,South,187,1.0,9.0,76,0.01,,,0.07,,2013-09-11 23:22:00,
2013-09-11 19:53:00,72.0,65.0,29.93,East,88,1.0,6.0,79,0.01,,,0.07,,2013-09-11 23:53:00,
2013-09-11 20:22:00,71.0,65.0,29.92,West,264,1.0,4.0,81,0.01,,,0.08,,2013-09-12 00:22:00,
2013-09-11 20:42:00,70.0,64.0,29.92,SSW,193,0.0,4.0,82,0.01,,,0.08,,2013-09-12 00:42:00,
2013-09-11 20:52:00,70.0,64.0,29.92,SW,230,1.0,4.0,81,0.01,,,0.08,,2013-09-12 00:52:00,
2013-09-11 21:22:00,69.0,63.0,29.91,SW,234,1.0,5.0,81,0.01,,,0.08,,2013-09-12 01:22:00,
2013-09-11 21:32:00,69.0,63.0,29.91,SW,234,1.0,5.0,81,0.01,,,0.08,,2013-09-12 01:32:00,
2013-09-11 21:42:00,69.0,63.0,29.91,SW,234,1.0,5.0,81,0.01,,,0.08,,2013-09-12 01:42:00,
2013-09-11 21:52:00,69.0,64.0,29.91,SSE,157,1.0,6.0,83,0.00,,,0.08,,2013-09-12 01:52:00,
2013-09-11 22:22:00,67.0,63.0,29.91,SSE,153,3.0,4.0,86,0.01,,,0.09,,2013-09-12 02:22:00,
2013-09-11 23:22:00,66.0,63.0,29.91,SE,140,2.0,3.0,90,0.01,,,0.09,,2013-09-12 03:22:00,
2013-09-11 23:55:00,68.0,65.0,29.91,SW,218,1.0,7.0,89,0.01,,,0.10,,2013-09-12 03:55:00,